Location: Fours
(44.3167°N, 6.7000°E)
Time: 13:08:49
(UTC+00:00)

YAOGAN 6 - Pass Details

Date: 30 November 2020
Orbit: 466 x 502 km, 97.0° (Epoch: 25 January)

Event Time Altitude Azimuth Distance (km) Brightness Sun altitude
Rises 17:09:22 0° 186° (S) 2,567 6.6 -12.9°
Reaches altitude 10° 17:11:33 10° 195° (SSW) 1,685 5.7 -13.2°
Maximum altitude 17:14:55 35° 263° (W) 803 4.4 -13.8°
Drops below altitude 10° 17:18:16 10° 331° (NNW) 1,680 5.4 -14.4°
Sets 17:20:27 0° 340° (NNW) 2,559 6.3 -14.7°
